����������;��������(kVARh)
2017-09-11 00:00;17,4
2017-09-11 00:15;12,8
2017-09-11 00:30;13
2017-09-11 00:45;20,9
2017-09-11 01:00;24
2017-09-11 01:15;24,4
2017-09-11 01:30;16,6
2017-09-11 01:45;19,75
2017-09-11 02:00;18,1
2017-09-11 02:15;18,25
2017-09-11 02:30;17,35
2017-09-11 02:45;15,7
2017-09-11 03:00;18,75
2017-09-11 03:15;17,7
2017-09-11 03:30;16,9
2017-09-11 03:45;17,6
2017-09-11 04:00;19,05
2017-09-11 04:15;19,35
2017-09-11 04:30;17,65
2017-09-11 04:45;16,45
2017-09-11 05:00;14,2
2017-09-11 05:15;15,65
2017-09-11 05:30;15,6
2017-09-11 05:45;12,95
2017-09-11 06:00;16
2017-09-11 06:15;16,4
2017-09-11 06:30;14,2
2017-09-11 06:45;13,9
2017-09-11 07:00;15,25
2017-09-11 07:15;18,7
2017-09-11 07:30;38,6
2017-09-11 07:45;42,35
2017-09-11 08:00;42,45
2017-09-11 08:15;27
2017-09-11 08:30;32,7
2017-09-11 08:45;43,15
2017-09-11 09:00;58,4
2017-09-11 09:15;61,7
2017-09-11 09:30;64,8
2017-09-11 09:45;66,9
2017-09-11 10:00;68,9
2017-09-11 10:15;61,7
2017-09-11 10:30;64,7
2017-09-11 10:45;62,05
2017-09-11 11:00;70
2017-09-11 11:15;83,2
2017-09-11 11:30;81,95
2017-09-11 11:45;77,3
2017-09-11 12:00;80,35
2017-09-11 12:15;91,6
2017-09-11 12:30;94,15
2017-09-11 12:45;96,3
2017-09-11 13:00;82,15
2017-09-11 13:15;77
2017-09-11 13:30;71,45
2017-09-11 13:45;73,6
2017-09-11 14:00;72,4
2017-09-11 14:15;75,6
2017-09-11 14:30;73,65
2017-09-11 14:45;74,35
2017-09-11 15:00;97,9
2017-09-11 15:15;103,6
2017-09-11 15:30;100,8
2017-09-11 15:45;87,15
2017-09-11 16:00;72,55
2017-09-11 16:15;75,55
2017-09-11 16:30;74,55
2017-09-11 16:45;83,6
2017-09-11 17:00;83,2
2017-09-11 17:15;70,95
2017-09-11 17:30;62,6
2017-09-11 17:45;59,9
2017-09-11 18:00;50,7
2017-09-11 18:15;49,7
2017-09-11 18:30;54,8
2017-09-11 18:45;55,4
2017-09-11 19:00;56,55
2017-09-11 19:15;52,95
2017-09-11 19:30;52,15
2017-09-11 19:45;48,7
2017-09-11 20:00;44,45
2017-09-11 20:15;36,2
2017-09-11 20:30;36,2
2017-09-11 20:45;34,2
2017-09-11 21:00;34,85
2017-09-11 21:15;35,8
2017-09-11 21:30;36,55
2017-09-11 21:45;33,35
2017-09-11 22:00;28,05
2017-09-11 22:15;33,25
2017-09-11 22:30;23,35
2017-09-11 22:45;18,9
2017-09-11 23:00;18,5
2017-09-11 23:15;17,3
2017-09-11 23:30;16,85
2017-09-11 23:45;15,55
2017-09-12 00:00;15,15
2017-09-12 00:15;15,8
2017-09-12 00:30;17,8
2017-09-12 00:45;16,65
2017-09-12 01:00;17,2
2017-09-12 01:15;16,75
2017-09-12 01:30;17,75
2017-09-12 01:45;13,7
2017-09-12 02:00;8,85
2017-09-12 02:15;10,1
2017-09-12 02:30;9,55
2017-09-12 02:45;10,25
2017-09-12 03:00;8,45
2017-09-12 03:15;7,55
2017-09-12 03:30;8,9
2017-09-12 03:45;8,95
2017-09-12 04:00;7,8
2017-09-12 04:15;7,85
2017-09-12 04:30;9,4
2017-09-12 04:45;8,2
2017-09-12 05:00;9,05
2017-09-12 05:15;7,2
2017-09-12 05:30;6,7
2017-09-12 05:45;8
2017-09-12 06:00;8,25
2017-09-12 06:15;8,05
2017-09-12 06:30;9,6
2017-09-12 06:45;16,65
2017-09-12 07:00;14,4
2017-09-12 07:15;14,15
2017-09-12 07:30;17,95
2017-09-12 07:45;20,65
2017-09-12 08:00;23,6
2017-09-12 08:15;0
2017-09-12 08:30;26,65
2017-09-12 08:45;29,85
2017-09-12 09:00;28,35
2017-09-12 09:15;31,25
2017-09-12 09:30;41,3
2017-09-12 09:45;45,65
2017-09-12 10:00;48,5
2017-09-12 10:15;85,1
2017-09-12 10:30;61,3
2017-09-12 10:45;80,7
2017-09-12 11:00;87,9
2017-09-12 11:15;72,3
2017-09-12 11:30;77,1
2017-09-12 11:45;78,75
2017-09-12 12:00;66
2017-09-12 12:15;72,35
2017-09-12 12:30;75,6
2017-09-12 12:45;73,15
2017-09-12 13:00;72,7
2017-09-12 13:15;84,65
2017-09-12 13:30;99,55
2017-09-12 13:45;87,1
2017-09-12 14:00;70,45
2017-09-12 14:15;75,05
2017-09-12 14:30;75,15
2017-09-12 14:45;73,65
2017-09-12 15:00;86,3
2017-09-12 15:15;83,8
2017-09-12 15:30;82,75
2017-09-12 15:45;83,55
2017-09-12 16:00;81,8
2017-09-12 16:15;80,3
2017-09-12 16:30;78,8
2017-09-12 16:45;78,05
2017-09-12 17:00;61,5
2017-09-12 17:15;61,4
2017-09-12 17:30;57,95
2017-09-12 17:45;58,95
2017-09-12 18:00;56,05
2017-09-12 18:15;54,1
2017-09-12 18:30;51,2
2017-09-12 18:45;45,95
2017-09-12 19:00;41,4
2017-09-12 19:15;39,8
2017-09-12 19:30;38,75
2017-09-12 19:45;37,3
2017-09-12 20:00;37,85
2017-09-12 20:15;32,45
2017-09-12 20:30;33,65
2017-09-12 20:45;33,25
2017-09-12 21:00;31,85
2017-09-12 21:15;32,05
2017-09-12 21:30;33,15
2017-09-12 21:45;28,65
2017-09-12 22:00;26,95
2017-09-12 22:15;30,7
2017-09-12 22:30;26
2017-09-12 22:45;13,7
2017-09-12 23:00;8,55
2017-09-12 23:15;7,7
2017-09-12 23:30;7,05
2017-09-12 23:45;10,4
2017-09-13 00:00;6,7
2017-09-13 00:15;10,05
2017-09-13 00:30;8,95
2017-09-13 00:45;8,1
2017-09-13 01:00;9,05
2017-09-13 01:15;8,7
2017-09-13 01:30;10
2017-09-13 01:45;8,75
2017-09-13 02:00;9,8
2017-09-13 02:15;9,6
2017-09-13 02:30;11,2
2017-09-13 02:45;9,3
2017-09-13 03:00;9
2017-09-13 03:15;7,65
2017-09-13 03:30;7,15
2017-09-13 03:45;8,55
2017-09-13 04:00;7,45
2017-09-13 04:15;7,8
2017-09-13 04:30;9,9
2017-09-13 04:45;7,3
2017-09-13 05:00;8,9
2017-09-13 05:15;8,7
2017-09-13 05:30;9,3
2017-09-13 05:45;7,7
2017-09-13 06:00;7,55
2017-09-13 06:15;14,65
2017-09-13 06:30;23
2017-09-13 06:45;25,85
2017-09-13 07:00;21,15
2017-09-13 07:15;20,2
2017-09-13 07:30;46,45
2017-09-13 07:45;42,75
2017-09-13 08:00;32,2
2017-09-13 08:15;30,3
2017-09-13 08:30;40,6
2017-09-13 08:45;44,7
2017-09-13 09:00;49,95
2017-09-13 09:15;44,4
2017-09-13 09:30;51,85
2017-09-13 09:45;60,1
2017-09-13 10:00;59,4
2017-09-13 10:15;66,8
2017-09-13 10:30;65,5
2017-09-13 10:45;91,3
2017-09-13 11:00;99,9
2017-09-13 11:15;76,65
2017-09-13 11:30;80,25
2017-09-13 11:45;86,85
2017-09-13 12:00;79,65
2017-09-13 12:15;85,85
2017-09-13 12:30;91,25
2017-09-13 12:45;84,7
2017-09-13 13:00;93,95
2017-09-13 13:15;90,15
2017-09-13 13:30;89,7
2017-09-13 13:45;88,65
2017-09-13 14:00;92,45
2017-09-13 14:15;90,1
2017-09-13 14:30;93,85
2017-09-13 14:45;89
2017-09-13 15:00;88,1
2017-09-13 15:15;84,95
2017-09-13 15:30;87,6
2017-09-13 15:45;81,7
2017-09-13 16:00;79,45
2017-09-13 16:15;81,55
2017-09-13 16:30;80,45
2017-09-13 16:45;77,35
2017-09-13 17:00;76,1
2017-09-13 17:15;62
2017-09-13 17:30;62,35
2017-09-13 17:45;60,35
2017-09-13 18:00;60,05
2017-09-13 18:15;58,7
2017-09-13 18:30;54,65
2017-09-13 18:45;49,7
2017-09-13 19:00;44,1
2017-09-13 19:15;45,2
2017-09-13 19:30;45,95
2017-09-13 19:45;36,6
2017-09-13 20:00;29,95
2017-09-13 20:15;19,6
2017-09-13 20:30;21,65
2017-09-13 20:45;21,5
2017-09-13 21:00;19,6
2017-09-13 21:15;24,75
2017-09-13 21:30;22
2017-09-13 21:45;18,65
2017-09-13 22:00;17,65
2017-09-13 22:15;23,15
2017-09-13 22:30;17,2
2017-09-13 22:45;15,15
2017-09-13 23:00;19,4
2017-09-13 23:15;13,6
2017-09-13 23:30;15
2017-09-13 23:45;9,1
2017-09-14 00:00;2,05
2017-09-14 00:15;1,1
2017-09-14 00:30;1,35
2017-09-14 00:45;1,75
2017-09-14 01:00;1,25
2017-09-14 01:15;2,45
2017-09-14 01:30;1,75
2017-09-14 01:45;2,2
2017-09-14 02:00;1,8
2017-09-14 02:15;3,5
2017-09-14 02:30;2,45
2017-09-14 02:45;2,45
2017-09-14 03:00;2,35
2017-09-14 03:15;1,4
2017-09-14 03:30;0,45
2017-09-14 03:45;1,2
2017-09-14 04:00;1,75
2017-09-14 04:15;4,05
2017-09-14 04:30;2,8
2017-09-14 04:45;2,2
2017-09-14 05:00;1,7
2017-09-14 05:15;1,55
2017-09-14 05:30;2,1
2017-09-14 05:45;1,15
2017-09-14 06:00;1,85
2017-09-14 06:15;1,35
2017-09-14 06:30;6,2
2017-09-14 06:45;19,25
2017-09-14 07:00;11,65
2017-09-14 07:15;13,95
2017-09-14 07:30;44,65
2017-09-14 07:45;39,7
2017-09-14 08:00;29,9
2017-09-14 08:15;22,05
2017-09-14 08:30;32,45
2017-09-14 08:45;40,7
2017-09-14 09:00;48,95
2017-09-14 09:15;51,4
2017-09-14 09:30;54,5
2017-09-14 09:45;54,95
2017-09-14 10:00;49,15
2017-09-14 10:15;56,1
2017-09-14 10:30;60,95
2017-09-14 10:45;83,2
2017-09-14 11:00;95,9
2017-09-14 11:15;73,8
2017-09-14 11:30;76,45
2017-09-14 11:45;82,05
2017-09-14 12:00;75,1
2017-09-14 12:15;82,9
2017-09-14 12:30;81,95
2017-09-14 12:45;77,4
2017-09-14 13:00;79,15
2017-09-14 13:15;78,9
2017-09-14 13:30;71,6
2017-09-14 13:45;70,8
2017-09-14 14:00;71,4
2017-09-14 14:15;75,1
2017-09-14 14:30;73,15
2017-09-14 14:45;69,75
2017-09-14 15:00;70,6
2017-09-14 15:15;70
2017-09-14 15:30;69,9
2017-09-14 15:45;61,1
2017-09-14 16:00;57,35
2017-09-14 16:15;57,7
2017-09-14 16:30;54,45
2017-09-14 16:45;63,7
2017-09-14 17:00;61,4
2017-09-14 17:15;50,85
2017-09-14 17:30;45,3
2017-09-14 17:45;54,15
2017-09-14 18:00;52,4
2017-09-14 18:15;40,55
2017-09-14 18:30;42,45
2017-09-14 18:45;35,6
2017-09-14 19:00;36,05
2017-09-14 19:15;35,35
2017-09-14 19:30;34
2017-09-14 19:45;34,5
2017-09-14 20:00;29,5
2017-09-14 20:15;26,55
2017-09-14 20:30;27,95
2017-09-14 20:45;29,05
2017-09-14 21:00;28
2017-09-14 21:15;27,85
2017-09-14 21:30;27,3
2017-09-14 21:45;30,1
2017-09-14 22:00;23,65
2017-09-14 22:15;18,9
2017-09-14 22:30;16,85
2017-09-14 22:45;17,8
2017-09-14 23:00;17,85
2017-09-14 23:15;12,4
2017-09-14 23:30;13,6
2017-09-14 23:45;8,6
2017-09-15 00:00;6,8
2017-09-15 00:15;7,15
2017-09-15 00:30;3,2
2017-09-15 00:45;4,1
2017-09-15 01:00;2,45
2017-09-15 01:15;1,95
2017-09-15 01:30;1,9
2017-09-15 01:45;1,9
2017-09-15 02:00;1,5
2017-09-15 02:15;1,1
2017-09-15 02:30;2,4
2017-09-15 02:45;1,7
2017-09-15 03:00;1,85
2017-09-15 03:15;1,35
2017-09-15 03:30;2,35
2017-09-15 03:45;1,95
2017-09-15 04:00;1,8
2017-09-15 04:15;2,15
2017-09-15 04:30;0,4
2017-09-15 04:45;1,55
2017-09-15 05:00;1,9
2017-09-15 05:15;0,95
2017-09-15 05:30;2
2017-09-15 05:45;1,05
2017-09-15 06:00;1,85
2017-09-15 06:15;2,2
2017-09-15 06:30;1,2
2017-09-15 06:45;9,05
2017-09-15 07:00;8
2017-09-15 07:15;9,55
2017-09-15 07:30;47,2
2017-09-15 07:45;56,45
2017-09-15 08:00;31,3
2017-09-15 08:15;33
2017-09-15 08:30;34,95
2017-09-15 08:45;51,35
2017-09-15 09:00;58,95
2017-09-15 09:15;63,25
2017-09-15 09:30;63,2
2017-09-15 09:45;63,05
2017-09-15 10:00;60,7
2017-09-15 10:15;60,45
2017-09-15 10:30;65,65
2017-09-15 10:45;69,35
2017-09-15 11:00;70,9
2017-09-15 11:15;76,7
2017-09-15 11:30;78,7
2017-09-15 11:45;80,45
2017-09-15 12:00;79,75
2017-09-15 12:15;84,1
2017-09-15 12:30;85,55
2017-09-15 12:45;88,25
2017-09-15 13:00;85,8
2017-09-15 13:15;80,3
2017-09-15 13:30;82,2
2017-09-15 13:45;85,4
2017-09-15 14:00;82,9
2017-09-15 14:15;80,95
2017-09-15 14:30;82,05
2017-09-15 14:45;82,4
2017-09-15 15:00;79,7
2017-09-15 15:15;75,3
2017-09-15 15:30;67,9
2017-09-15 15:45;68,7
2017-09-15 16:00;69,55
2017-09-15 16:15;69,7
2017-09-15 16:30;67,55
2017-09-15 16:45;66,2
2017-09-15 17:00;63,5
2017-09-15 17:15;57,1
2017-09-15 17:30;52,95
2017-09-15 17:45;53,65
2017-09-15 18:00;54,2
2017-09-15 18:15;50,55
2017-09-15 18:30;48,35
2017-09-15 18:45;43,35
2017-09-15 19:00;41,45
2017-09-15 19:15;41,6
2017-09-15 19:30;38
2017-09-15 19:45;34,7
2017-09-15 20:00;33,4
2017-09-15 20:15;31,3
2017-09-15 20:30;29,3
2017-09-15 20:45;31,35
2017-09-15 21:00;29,1
2017-09-15 21:15;29,7
2017-09-15 21:30;26,85
2017-09-15 21:45;27,3
2017-09-15 22:00;22,5
2017-09-15 22:15;13,75
2017-09-15 22:30;14,95
2017-09-15 22:45;11,35
2017-09-15 23:00;15,15
2017-09-15 23:15;9,8
2017-09-15 23:30;6,65
2017-09-15 23:45;4,5
2017-09-16 00:00;6,2
2017-09-16 00:15;1,95
2017-09-16 00:30;2,8
2017-09-16 00:45;1,4
2017-09-16 01:00;2,8
2017-09-16 01:15;2,55
2017-09-16 01:30;2,8
2017-09-16 01:45;2,75
2017-09-16 02:00;2,8
2017-09-16 02:15;1,55
2017-09-16 02:30;1,1
2017-09-16 02:45;2,6
2017-09-16 03:00;1,45
2017-09-16 03:15;2,2
2017-09-16 03:30;3,4
2017-09-16 03:45;4,85
2017-09-16 04:00;3,65
2017-09-16 04:15;4,7
2017-09-16 04:30;4,9
2017-09-16 04:45;4,75
2017-09-16 05:00;4,4
2017-09-16 05:15;5,55
2017-09-16 05:30;3,35
2017-09-16 05:45;3,85
2017-09-16 06:00;5,65
2017-09-16 06:15;4,9
2017-09-16 06:30;3,8
2017-09-16 06:45;3,5
2017-09-16 07:00;2,05
2017-09-16 07:15;1,9
2017-09-16 07:30;1,2
2017-09-16 07:45;5
2017-09-16 08:00;4,45
2017-09-16 08:15;3,5
2017-09-16 08:30;10,05
2017-09-16 08:45;8,55
2017-09-16 09:00;8,25
2017-09-16 09:15;8,65
2017-09-16 09:30;8,45
2017-09-16 09:45;7,8
2017-09-16 10:00;4,75
2017-09-16 10:15;6,15
2017-09-16 10:30;8
2017-09-16 10:45;10,9
2017-09-16 11:00;8,95
2017-09-16 11:15;8,25
2017-09-16 11:30;8,5
2017-09-16 11:45;6,5
2017-09-16 12:00;6,65
2017-09-16 12:15;6
2017-09-16 12:30;4,25
2017-09-16 12:45;4,4
2017-09-16 13:00;5,5
2017-09-16 13:15;4,5
2017-09-16 13:30;4,9
2017-09-16 13:45;5,1
2017-09-16 14:00;4,75
2017-09-16 14:15;7,1
2017-09-16 14:30;9,85
2017-09-16 14:45;9,7
2017-09-16 15:00;9,95
2017-09-16 15:15;10,65
2017-09-16 15:30;10
2017-09-16 15:45;13,6
2017-09-16 16:00;11,8
2017-09-16 16:15;9,8
2017-09-16 16:30;14,1
2017-09-16 16:45;14,5
2017-09-16 17:00;13,3
2017-09-16 17:15;13,1
2017-09-16 17:30;12,5
2017-09-16 17:45;11,6
2017-09-16 18:00;13,95
2017-09-16 18:15;14,75
2017-09-16 18:30;12,2
2017-09-16 18:45;14,2
2017-09-16 19:00;9,4
2017-09-16 19:15;11,45
2017-09-16 19:30;10,45
2017-09-16 19:45;9,35
2017-09-16 20:00;7,85
2017-09-16 20:15;9,1
2017-09-16 20:30;7,7
2017-09-16 20:45;8,65
2017-09-16 21:00;8,6
2017-09-16 21:15;8,5
2017-09-16 21:30;16,15
2017-09-16 21:45;18,15
2017-09-16 22:00;15,55
2017-09-16 22:15;17,3
2017-09-16 22:30;18,3
2017-09-16 22:45;14,85
2017-09-16 23:00;14,15
2017-09-16 23:15;7,9
2017-09-16 23:30;8,45
2017-09-16 23:45;2,5
2017-09-17 00:00;3,7
2017-09-17 00:15;6,5
2017-09-17 00:30;6,45
2017-09-17 00:45;7,9
2017-09-17 01:00;5,05
2017-09-17 01:15;7,2
2017-09-17 01:30;5,65
2017-09-17 01:45;3,95
2017-09-17 02:00;5,5
2017-09-17 02:15;3,75
2017-09-17 02:30;4,5
2017-09-17 02:45;5,2
2017-09-17 03:00;3,3
2017-09-17 03:15;7,1
2017-09-17 03:30;5,1
2017-09-17 03:45;6,45
2017-09-17 04:00;7,15
2017-09-17 04:15;5,05
2017-09-17 04:30;5,8
2017-09-17 04:45;7,45
2017-09-17 05:00;5,45
2017-09-17 05:15;6,85
2017-09-17 05:30;8,55
2017-09-17 05:45;6,75
2017-09-17 06:00;8,6
2017-09-17 06:15;8,2
2017-09-17 06:30;9,6
2017-09-17 06:45;8,1
2017-09-17 07:00;7
2017-09-17 07:15;9,95
2017-09-17 07:30;9,95
2017-09-17 07:45;7,6
2017-09-17 08:00;7,6
2017-09-17 08:15;7,55
2017-09-17 08:30;6,6
2017-09-17 08:45;9,6
2017-09-17 09:00;11,9
2017-09-17 09:15;12,6
2017-09-17 09:30;10,55
2017-09-17 09:45;15,55
2017-09-17 10:00;11,35
2017-09-17 10:15;8,2
2017-09-17 10:30;11,4
2017-09-17 10:45;10,4
2017-09-17 11:00;12,6
2017-09-17 11:15;11,9
2017-09-17 11:30;9,25
2017-09-17 11:45;12,05
2017-09-17 12:00;9
2017-09-17 12:15;15,55
2017-09-17 12:30;13,05
2017-09-17 12:45;14,45
2017-09-17 13:00;13,15
2017-09-17 13:15;13,4
2017-09-17 13:30;13,5
2017-09-17 13:45;14,45
2017-09-17 14:00;12,5
2017-09-17 14:15;15,4
2017-09-17 14:30;14,55
2017-09-17 14:45;15,3
2017-09-17 15:00;17,55
2017-09-17 15:15;18
2017-09-17 15:30;18,15
2017-09-17 15:45;19,05
2017-09-17 16:00;18,85
2017-09-17 16:15;18,95
2017-09-17 16:30;19,25
2017-09-17 16:45;16,95
2017-09-17 17:00;18,6
2017-09-17 17:15;16,65
2017-09-17 17:30;18,6
2017-09-17 17:45;21,75
2017-09-17 18:00;23
2017-09-17 18:15;19,4
2017-09-17 18:30;18,35
2017-09-17 18:45;21,3
2017-09-17 19:00;20,5
2017-09-17 19:15;24,4
2017-09-17 19:30;22,3
2017-09-17 19:45;21,35
2017-09-17 20:00;18,6
2017-09-17 20:15;19,35
2017-09-17 20:30;18,9
2017-09-17 20:45;19,6
2017-09-17 21:00;19,85
2017-09-17 21:15;18,85
2017-09-17 21:30;18,35
2017-09-17 21:45;14,95
2017-09-17 22:00;14,5
2017-09-17 22:15;17,3
2017-09-17 22:30;18
2017-09-17 22:45;11,95
2017-09-17 23:00;10,8
2017-09-17 23:15;4,65
2017-09-17 23:30;0,45
2017-09-17 23:45;1,3

